Regional Weather Roundup
Issued by NWS

Home | Current Version | Previous Version | Text Only | Print | Product List | Glossary On
Versions: 1 2 3 4 5 6 7 8 9 10 11 12 13 14 15 16 17 18 19 20 21 22 23 24 25 26 27 28 29 30 31 32 33 34 35 36 37 38 39 40 41 42 43 44 45 46 47 48 49 50
000
ASUS43 KDTX 301901
RWRMI
MICHIGAN HOURLY REGIONAL WEATHER ROUNDUP
NATIONAL WEATHER SERVICE DETROIT/PONTIAC MI
300 PM EDT THU JUL 30 2015

NOTE: "FAIR" INDICATES FEW OR NO CLOUDS BELOW 12,000 FEET WITH NO
SIGNIFICANT WEATHER AND/OR OBSTRUCTION TO VISIBILITY.

MIZ047>049-052>055-059>063-066>070-074>076-081>083-302000-
SOUTHEAST LOWER MICHIGAN

CITY           SKY/WX    TMP DP  RH WIND       PRES   REMARKS
ADRIAN         SUNNY     82  58  43 W14G21    30.00F
ALMA           SUNNY     83  51  32 W16G24    29.94S
ANN ARBOR      SUNNY     83  57  41 W14       29.97F
BAD AXE        SUNNY     80  56  42 W15G23    29.90S
CARO           SUNNY     83  56  38 W16       29.90F
DETROIT CITY   SUNNY     85  54  34 NW10      29.93F
DETROIT        MOSUNNY   85  57  38 W15       29.95F
FLINT          SUNNY     86  55  34 W17G28    29.94S
GROSSE ILE     MOSUNNY   84  55  37 W17       29.94F
HILLSDALE      SUNNY     83  53  35 W15       30.02S
HOWELL         SUNNY     85  51  30 W14G22    29.96S

CITY           SKY/WX    TMP DP  RH WIND       PRES   REMARKS
JACKSON        SUNNY     81  56  42 W15G23    29.99F
LAMBERTVILLE   MOSUNNY   84  56  39 W10G18    29.99S
LANSING        SUNNY     84  54  35 W14G24    29.97F
LAPEER         FAIR      83  55  38 W13G22    29.93F
MASON          SUNNY     82  54  37 W15G24    29.97F
MONROE         MOSUNNY   84  60  44 W14       29.96S
MT. CLEMENS    MOSUNNY   85  56  37 W20       29.91F
PONTIAC        MOSUNNY   83  56  39 W14       29.95S
PORT HOPE        N/A     82  58  43 W12G23    29.85F
PORT HURON     SUNNY     81  55  41 W7        29.92S
TRI CITIES     MOSUNNY   86  55  34 W16G24    29.91F
MIDLAND        FAIR      85  50  29 W17G26    29.89F
TROY           SUNNY     85  52  31 W12G22    29.96S
SAGINAW HB     SUNNY     84  54  34 W10G23    29.90F
$$
MIZ043>046-050>051-056>058-064>065-071>073-077>080-302000-
SOUTHWEST LOWER MICHIGAN

CITY           SKY/WX    TMP DP  RH WIND       PRES   REMARKS
BATTLE CREEK   MOSUNNY   85  57  38 W21G26    30.02S
BENTON HARBOR  SUNNY     82  60  47 W15       30.04F
BIG RAPIDS     SUNNY     82  48  30 NW14G25   29.95S
COLDWATER      SUNNY     83  52  34 W12G17    30.02S
FREMONT        FAIR      82  52  34 NW20G25   29.98S
HOLLAND        SUNNY     82  61  48 W13       30.03S
GRAND RAPIDS   MOSUNNY   83  54  36 NW20G30   29.99S
IONIA          FAIR      85  53  33 W17       29.96F
KALAMAZOO      SUNNY     84  56  38 W17G23    30.02S
LUDINGTON      SUNNY     80  64  58 SW13G18   29.97S
MARSHALL       SUNNY     83  55  38 W17G24    30.00S
MOUNT PLEASANT SUNNY     87  49  26 NW13G28   29.92S
MUSKEGON       MOSUNNY   82  28  14 W10G20    30.00S
SOUTH HAVEN    SUNNY     79  60  50 W12G17    30.04S
$$
MIZ016>042-302000-
NORTHERN LOWER MICHIGAN

CITY           SKY/WX    TMP DP  RH WIND       PRES   REMARKS
ALPENA         MOSUNNY   82  52  35 W15G25    29.84R
BEAVER ISLAND  MOSUNNY   77  60  56 W13       29.86S
BELLAIRE       SUNNY     80  53  39 W6G23     29.89S
CADILLAC       SUNNY     82  52  35 W20G29    29.94S
CHARLEVOIX     SUNNY     79  57  47 W23G32    29.90S
FRANKFORT      SUNNY     78  63  58 SW8       29.93S
GAYLORD        MOSUNNY   78  52  40 W20G31    29.89S
GRAYLING       MOSUNNY   81  52  35 W16G26    29.91R
HARBOR SPRINGS PTSUNNY   76  61  59 W13G18    29.86F
HOUGHTON LAKE  MOSUNNY   83  51  33 W17G26    29.90F
MANISTEE       SUNNY     79  57  47 SW14G22   29.95S
OSCODA         MOSUNNY   89  48  23 W17G25    29.82F
PELLSTON       CLOUDY    79  56  45 W18G24    29.86S
ROGERS CITY    CLOUDY    76  59  54 NW9G16    29.84S
TRAVERSE CITY  MOSUNNY   85  53  33 W24G33    29.89S
$$
MIZ007>008-015-302000-
EASTERN UPPER MICHIGAN

CITY           SKY/WX    TMP DP  RH WIND       PRES   REMARKS
KINROSS        CLOUDY    70  54  56 NW20      29.84R
MACKINAC ISLAN PTSUNNY   75  55  49 W17G26    29.85R
$$
MIZ004>006-011>014-085-302000-
CENTRAL UPPER MICHIGAN

CITY           SKY/WX    TMP DP  RH WIND       PRES   REMARKS
ESCANABA       PTSUNNY   82  52  34 W21       29.85R
MENOMINEE      MOSUNNY   82  52  34 NW6G21    29.89F
SAWYER-GWINN   MOSUNNY   77  48  36 NW17G28   29.89F
$$
MIZ001>003-009>011-084-302000-
WESTERN UPPER MICHIGAN

CITY           SKY/WX    TMP DP  RH WIND       PRES   REMARKS
IRON MOUNTAIN  MOSUNNY   83  49  30 MISG      29.91R
HOUGHTON       SUNNY     74  52  46 W25G31    29.88F
COPPER HARBOR    N/A     75  52  44 NW16G26   29.84S
IRONWOOD       SUNNY     75  57  53 NW14G21   29.91S
$$

ABBREVIATIONS USED IN REMARKS
   TC - TEMPERATURE IN CELSIUS
  WCI - WIND CHILL INDEX
   HX - HEAT INDEX
  VSB - VISIBILITY



USA.gov is the U.S. government's official web portal to all federal, state and local government web resources and services.